ROMMA est une association bénévole à but non lucratif. Votre soutien est indispensable : ADHERER à ROMMA ou FAIRE un DON

Engins - (38, Isère)

Vercors (906 m)   Longitude: 05° 37' E   Latitude: 45° 11' N Station partenaire n°139
 

Détail journalier du     <<     >>

Température Precipitation Humidité Vent Dir Rafale Dir. rafale Ensol.
Heure (°C) (mm) (%) (km/h) (km/h) (min)
01:00 6.40848N29N0
02:00 6.20838NNO26N0
03:00 6.208111N26N0
04:00 5.40838N23NNO0
05:00 6.207717N40NNE0
06:00 5.208210N39NNE0
07:00 3.90884O16NE0
08:00 3.80895OSO15O0
09:00 6.30864ESE13SSE25
10:00 7.40835SE16SSE60
11:00 9.40785E19E60
12:00 10.10775ENE18ENE60
13:00 11.20726ENE21ENE60
14:00 11.80695ENE18ENE60
15:00 12.70674ENE16ENE60
16:00 13.10663NNE13NNE60
17:00 12.00692ENE8E50
18:00 9.10812ENE6ONO10
19:00 8.90832O5O0
20:00 8.40843OSO6O0
21:00 7.40853OSO6OSO0
22:00 6.90863SSO10O0
23:00 6.40845SO16OSO0
minuit 6.00847SO24SSO0

Graphique du 03-10-2019

 

Serveur OMMA